Timeline UpdatesTrip UpdatesNews PostsPvt Posts♥♥Travel TipsAdmin PostsConv PostsFollowed PostsChat RequestsBlog PostsPNR Posts

Disclaimer
Search
 
 
Sat Nov 1, 2014 06:29:51 ISTHomeTrainsΣChainsAtlasPNRForumGalleryNewsFAQTripsMembersLoginFeedback
No Recent News for this Train
Other Trains in the News **new
Latest...
⇐ Return Journey: Train# 59812

59811/Haldighati Passenger

Time-Table HAS CHANGED.
Oct 18 (7:12AM)
Change Departure Station:
Change Arrival Station:
Post a Train Travel TipPost a Train Travel Tip **new
Post a Comment/Question/Picture/VideoPost a Comment/Question/Picture/Video
Pantry/Catering
✕ NO Pantry Car
✓ Catering Avbl
Loco/Rake Reversals
KOTA/Kota Junction (5);
RSA - Rake Sharing
Comes to AF as 59811, departs as 59814
Rake/Coach Composition
Loco-SLR+Handicapped-GS1-GS2-GS3-GS4-GS5-S1-S2-S3-GS6-GS7-GS8-SLR; Total Length-13 Coaches
Loco
Rtm-Kota:- WDM 3A RTM shed Kota-AF:- WAM 4E BRC shed Re# 549005-21
News    PNR    Forum    Time-Table    Availability    Fare Chart    Map    Arr/Dep History    Trips    Gallery    ΣChains    X/O    Timeline    
Travel Time: 1h 28m    7 halts    Distance: 50 km    Avg Speed: 34 km/hr
Type: Passenger
Zone: WR/Western
Departs @ 04:32 (Avg 8m late)
Platform# ???
SMTWTFS
Rupbas/RBS 
Arrives @ 06:00 (Avg 4m late)
Platform# 2
SMTWTFS
Agra Fort/AF 

7 halts. 7 intermediate Stations between Rupbas and Agra Fort

Show ALL intermediate Stations  Show Old Time-Table

#TrkCodeStation NameX/OArrivesAvgDepartsAvgHaltPFDay#KmSpeedElevZoneAddress
1|--|RTMRatlam Junction (7)  -09:55 08:30+8--1-641.960495mWRRatlam 457001, Madhya Pradesh
2|--|NLINamli  10:10 08:43+1810:11 08:45+191 2m--1-629.054494mWRNamli, Madhya Pradesh
3|--|BRLABrayla ChaurasiX  10:22 08:58+1810:23 09:00+221 2m--1-617.428486mWRBadayla Chorasi Rd, Madhya Pradesh
4|--|JAOJaora (2)  10:32 09:18+1410:33 09:20+171 2m11-609.060476mWRJaora, Madhya Pradesh
5|--|DODDhodhar  10:47 09:37+1510:48 09:39+141 2m--1-592.170478mWRDhodar, Madhya Pradesh
6|--|KCNRKachnara Road new halt!!  09:47-09:49-2m--1-582.753498mWRSarsod, Madhya Pradesh
7|--|DLDDalauda  11:10 10:01+1511:11 10:03+141 2m--1-572.259469mWRDalauda, Madhya Pradesh
8|--|MDSMandsor (2)  11:23 10:18+1311:24 10:20+201 2m--1-557.552436mWRMandsaur, Madhya Pradesh
9|--|PIPPiplia (1)  11:40 10:38+1911:41 10:40+181 2m11-541.848472mWRPanth Pipalia, Madhya Pradesh
10|--|MLGMalhargarhX  11:51 10:50+1811:52 10:52+191 2m--1-533.852466mWRMalhargarh, Madhya Pradesh
11|--|HKLHarkia Khal  12:22 11:06+1812:23 11:08+181 2m--1-521.729455mWRState Highway 31, Rajasthan
12|--|NMHNimach (3)  12:45 11:35+612:55 11:40+910 5m--1-508.558490mWRMDR 11A, Madhya Pradesh
13|--|BIWKBisalwas KalanX  13:04 11:50+1413:05 11:52+171 2m--1-498.817477mWRMDR 11A, Rajasthan
14|--|JWOJawad RoadX  13:15 12:16+513:16 12:18+121 2m--1-492.131462mWRNayagaon, Rajasthan
15|--|NBHNimbahera (1)  13:26 12:38+313:27 12:40+91 2m11-481.838441mWRNimbahera, Rajasthan
16|--|GRFGambhiri RoadO  13:36 12:53+813:37 12:55+111 2m11-473.529441mWRNational Highway 79, Rajasthan
17|--|SMPShambhupura  13:47 13:14+313:48 13:16+51 2m--1-464.321423mWRShambhupura, Rajasthan
18|-=|CORChittaurgarh Junction (5)X  14:00 13:50-114:10+010 20m--1-452.615403mWRChittorgarh, Rajasthan
19|=-|CNAChanderiya (2)  14:38-114:40+02m--1-445.752408mWRChittorgarh, Rajasthan
20|--|PSLIParsoli  15:18+515:20+52m--1-412.653380mWCRNH 76, Rajasthan
21|--|MLGHMandalgarh  15:48+515:50+72m--1-388.048382mWCRMandalgarh, Rajasthan
22|--|SMPAShampura  16:10+916:12+92m--1-372.129395mWCRMandalgarh, Rajasthan
23|--|URMLUpramal  16:22+816:23+91m--1-367.229390mWCRMDR 41, Rajasthan
24|--|JNRIJalindri  16:31+1016:32+101m--1-363.375 WCR
25|--|SNARSrinagar RajasthanX  16:58+1417:00+162m--1-330.921259mWCRShreenagar RJ, Rajasthan
26|--|BUDIBundiO  17:48 17:30+317:50 17:35+32 5m--1-320.614256mWCRBundi, Rajasthan
27|--|KOTAKota Junction (5)↵¶20:20+421:00+240m11-282.941256mWCRKota, Rajasthan
28|--|GQLGurla  21:08+921:10+92m--1-277.560251mWCRSH 33, Rajasthan
29/==/KPTNKeshorai PatanX  21:19 21:18+1021:20+101 2m--1-269.582243mWCRSH 33, Rajasthan
30/==/AREArnetha  21:29 21:28+1121:30+101 2m--1-258.669239mWCRShreepura, Rajasthan
31/==/KPZKaprenX  21:39 21:38+1121:40+151 2m--1-249.475234mWCRKota - Lalsot Mega Highway, Rajasthan
32/==/GKBGhataka VaranaXO  21:49 21:48+1821:50+181 2m--1-239.470232mWCRSH 33, Rajasthan
33/==/LBNLaban (2)X  21:59 21:58+1922:00+181 2m--1-230.057225mWCRBundi, Rajasthan
34/==/LKELakheri (3)X  22:09 22:08+1822:10+191 2m--1-222.466228mWCRBundi, Rajasthan
35/==/IDGIndargarh Sumerganj Mandi (2)X  22:20+2222:22+262m--1-211.578247mWCRIndargarh, Rajasthan
36/==/AMLIAmliX  22:32+2822:34+272m--1-198.465233mWCRSawai Madhopur, Rajasthan
37/==/RWJRawania DungarXO  22:41+2822:43+382m--1-190.856266mWCRSawai Madhopur, Rajasthan
38/==/KTAKushtala  22:52+3622:54+352m--1-182.327283mWCRNH 116, Rajasthan
39/==/SWMSawai Madhopur Junction (4)  23:10+2023:15+215m--1-175.277266mWCRSawai Madhopur, Rajasthan
40/==/RNTRanthambhore  23:23+3323:25+322m--1-165.069248mWCRMDR 111, Rajasthan
41/==/MXLMokholiX  23:30 23:33+3623:35+355 2m--1-155.865242mWCRMDR 111, Rajasthan
42/==/MLZMalarna  23:45+3423:47+332m--1-145.029236mWCRSawai Madhopur, Rajasthan
43/==/NMDNomodaX  00:03 00:02+2600:04+251 2m--2-137.964238mWCRMDR 111, Rajasthan
44/==/NNWNarayanpur Tatwara (2)  00:14 00:13+2500:15+241 2m--2-128.280256mWCRSawai Madhopur, Rajasthan
45/==/LRULalpur UmriO  00:24 00:23+2700:25+431 2m--2-117.613276mWCRSH 1, Rajasthan
46/==/GGCGangapur City (3)XO  00:55+1801:05+1910m--2-111.369270mWCRGangapur, Rajasthan
47/==/COOChhoti Odai  01:17 01:16+2701:18+301 2m--2-98.547257mWCRSH 25, Rajasthan
48/==/PDZPiliodaX  01:28+2801:30+302m--2-90.746247mWCRSH 1, Rajasthan
49/==/KNDPKhandip new halt!!  01:38-01:40-2m--2-84.655245mWCRState Highway 1, Rajasthan
50/==/SMBJShri Mahabirji (3)X  01:48+2301:50+302m--2-77.234240mWCRKarauli, Rajasthan
51/==/HANHindaun City (2)  02:08+2202:10+242m--2-67.072230mWCRKarauli, Rajasthan
52/==/FSPFateh Singhpura  02:21+3002:23+312m--2-53.871223mWCRState Highway 1, Rajasthan
53/==/DYDumariya (2)XO  02:32+3402:34+372m--2-43.212211mWCRState Highway 1, Rajasthan
54/==/BXNBayana Junction (3)  03:20+903:45+025m--2-34.154198mWCRBayana, Rajasthan
55/--/BAMABirambad (1)  03:51 03:50-03:52-1 2m12-29.656196mNCRDumariya, Rajasthan
56/--/BRBandh Bareta (1)  03:58 03:57+603:59+61 2m12-25.057203mNCRDumariya, Rajasthan
57/--/NGLTNaglatula (1)  04:06 04:05-04:07-1 2m12-19.363209mNCRBayana, Rajasthan
58/--/BIQBansi Paharpur (1)  04:14 04:13+704:15+61 2m12-13.058216mNCRRupbas, Rajasthan
59/--/DXKDhana Kherli (1)  04:22 04:21-04:23-1 2m12-7.262192mNCRFatehpur Sikri, Uttar Pradesh
60/--/RBSRupbas (2)»  04:31 04:30+704:32+81 2m--20.046178mNCRJAGNER ROAD, Rajasthan
61/--/AEDAulenda (1)  04:40 04:39-04:41-1 2m125.366179mNCRKiraoli, Uttar Pradesh
62/--/FTSFatehpur Sikri (2)  04:50 04:49+604:51+81 2m--214.244176mNCRAgra, Uttar Pradesh
63/--/SNPRSingarpur (1)X  04:59 04:58-05:00-1 2m1219.373168mNCRRupbas, Rajasthan
64/--/KLBKiraoli (1)  05:07 05:06+605:08+71 2m1226.661174mNCRKiraoli, Uttar Pradesh
65/--/MIQMirhakur (1)  05:17 05:16+705:18+81 2m1234.745172mNCRIdgah Agra, Uttar Pradesh
66/--/PTLIPathauli (1)  05:27 05:26+805:28+71 2m1240.757174mNCRAgra Fort, Uttar Pradesh
67/-=/IDHIdgah Agra Junction (3)  05:36+1005:38+142m--248.26168mNCRAgra, Uttar Pradesh
68/==/AFAgra Fort (3)•  06:00+4-2250.4-170mNCRRakabganj, Uttar Pradesh
Scroll to Top
Scroll to Bottom